Location: Home
(42.5358°N, 72.7383°W)
Time: 12:02:04
(UTC-05:00)

Tiros 1 - Pass Details

Date: 02 December 2021
Orbit: 629 x 664 km, 48.4° (Epoch: 26 January)

Event Time Altitude Azimuth Distance (km) Brightness Sun altitude
Rises 17:46:43 0° 207° (SSW) 2,905 11.2 -15.8°
Reaches altitude 10° 17:49:17 10° 195° (SSW) 2,005 10.1 -16.3°
Maximum altitude 17:53:09 27° 138° (SE) 1,230 8.3 -16.9°
Enters shadow 17:54:13 24° 115° (ESE) 1,309 8.3 -17.1°
Drops below altitude 10° 17:57:03 10° 81° (E) 2,030 - -17.6°
Sets 17:59:40 0° 69° (ENE) 2,949 - -18.1°
